User: anonymous   Login
Location: Alexandria
(38.8050°N, 77.0470°W)
Time: 04:34:38
(UTC-05:00)
Language:

N. Korean satellite - Orbit

View from above orbital plane
View from above orbital plane
View from above satellite
View from above satellite

Ground track
Ground track

The orbit data is extracted from the following two-line orbital elements,

1 39026U 12072A   17323.57666058 +.00002617 +00000-0 +10208-3 0  9991
2 39026 097.2171 336.1104 0039611 349.2544 010.7844 15.26086864273628
Epoch (UTC): 19 November 2017 13:50:23
Eccentricity: 0.0039611
inclination: 97.2171°
perigee height: 460 km
apogee height: 515 km
right ascension of ascending node: 336.1104°
argument of perigee: 349.2544°
revolutions per day: 15.26086864
mean anomaly at epoch: 10.7844°
orbit number at epoch: 27362

The dashed part of the orbit path shows where the satellite is in the earth's shadow,  

DLR